Printer-friendly version

IAU Minor Planet Center

Minor Planet Center

MPEC 2006-K43 : 2006 KZ37

The following Minor Planet Electronic Circular may be linked-to from your own Web pages, but must not otherwise be redistributed electronically.


Read MPEC 2006-K42 Read MPEC 2006-K44


M.P.E.C. 2006-K43                                Issued 2006 May 25, 16:22 UT

     The Minor Planet Electronic Circulars contain information on unusual
         minor planets and routine data on comets.  They are published
   on behalf of Commission 20 of the International Astronomical Union by the
          Minor Planet Center, Smithsonian Astrophysical Observatory,
                          Cambridge, MA 02138, U.S.A.

                  Supported in part by the Brinson Foundation
                  Supported in part by the TABASGO Foundation
             Prepared using the Tamkin Foundation Computer Network

                              MPC@CFA.HARVARD.EDU
          URL http://cfa-www.harvard.edu/iau/mpc.html  ISSN 1523-6714

                                   2006 KZ37

Observations:
     K06K37Z  C2006 03 23.48316 16 33 29.92 +21 31 08.9          20.7 V EK043691
     K06K37Z  C2006 03 23.49808 16 33 30.81 +21 31 22.4          21.1 V EK043691
     K06K37Z  C2006 03 23.51299 16 33 31.71 +21 31 34.9          20.6 V EK043691
     K06K37Z* C2006 05 24.36927 15 56 20.14 +30 47 30.9          19.1 V EK043703
     K06K37Z  C2006 05 24.38649 15 56 17.26 +30 47 14.8          18.9 V EK043703
     K06K37Z  C2006 05 24.39509 15 56 15.93 +30 47 07.3          19.1 V EK043703
     K06K37Z  C2006 05 24.43737 15 56 08.91 +30 46 28.2          19.1 V EK043703
     K06K37Z  C2006 05 24.44329 15 56 07.94 +30 46 22.3          18.9 V EK043703
     K06K37Z  C2006 05 24.44924 15 56 06.97 +30 46 17.2          19.1 V EK043703
     K06K37Z  C2006 05 24.60821 15 55 42.95 +30 44 21.4          18.7 V EK043E12
     K06K37Z  C2006 05 24.60910 15 55 42.80 +30 44 20.4          18.8 V EK043E12
     K06K37Z  C2006 05 24.60997 15 55 42.69 +30 44 19.5          18.6 V EK043E12
     K06K37Z  C2006 05 24.61086 15 55 42.46 +30 44 18.8          19.0 V EK043E12
     K06K37Z  C2006 05 24.61173 15 55 42.40 +30 44 17.9          18.6 V EK043E12
     K06K37Z  C2006 05 24.85203 15 55 05.57 +30 40 10.4                 EK043143
     K06K37Z  C2006 05 24.85856 15 55 04.55 +30 40 04.8          19.6 R EK043143
     K06K37Z  C2006 05 24.99107 15 54 42.38 +30 38 02.7          18.9 R EK043118
     K06K37Z  C2006 05 24.99889 15 54 41.07 +30 37 55.1          18.8 R EK043118
     K06K37Z  C2006 05 25.00406 15 54 40.23 +30 37 50.4          18.7 R EK043118
     K06K37Z  C2006 05 25.01046 15 54 39.18 +30 37 44.3          18.7 R EK043118
     K06K37Z  C2006 05 25.25623 15 54 01.02 +30 33 57.9          18.6 R EK043699
     K06K37Z 5C2006 05 25.25706 15 54 01.08 +30 33 56.7          18.6 R EK043673
     K06K37Z  C2006 05 25.26376 15 53 59.36 +30 33 48.6          19.0 R EK043734
     K06K37Z 5C2006 05 25.26447 15 53 59.85 +30 33 49.8                 EK043673
     K06K37Z  C2006 05 25.26609 15 53 58.94 +30 33 46.3          18.8 R EK043734
     K06K37Z  C2006 05 25.26765 15 53 58.70 +30 33 44.8          19.1 R EK043734
     K06K37Z 5C2006 05 25.26829 15 53 59.20 +30 33 46.1                 EK043673
     K06K37Z  C2006 05 25.26999 15 53 58.29 +30 33 42.8          18.8 R EK043734
     K06K37Z 5C2006 05 25.27350 15 53 58.29 +30 33 41.0                 EK043673
     K06K37Z  C2006 05 25.28182 15 53 56.70 +30 33 32.9                 EK043699
     K06K37Z  C2006 05 25.30745 15 53 52.41 +30 33 08.1                 EK043699
     K06K37Z  C2006 05 25.30759 15 53 52.36 +30 33 08.9          18.9 V EK043G96
     K06K37Z  C2006 05 25.30965 15 53 52.00 +30 33 07.1          19.0 V EK043G96
     K06K37Z  C2006 05 25.31174 15 53 51.64 +30 33 05.0          19.0 V EK043G96
     K06K37Z  C2006 05 25.31381 15 53 51.28 +30 33 03.0          18.9 V EK043G96
     K06K37Z  C2006 05 25.33304 15 53 48.07 +30 32 43.8                 EK043699

Observer details:
118 Modra.  Observer J. Vilagi.  0.6-m f/5.5 reflector + CCD.
143 Gnosca.  Observer S. Sposetti.  0.40-m f/4 reflector + CCD.
673 Table Mountain Observatory, Wrightwood.  Observer J. Young.  0.61-m f/16
    Cassegrain + CCD.
691 Steward Observatory, Kitt Peak.  Observer A. S. Descour.  0.9-m f/3
    reflector + CCD.
699 Lowell Observatory-LONEOS.  Observer B. A. Skiff.  0.59-m LONEOS Schmidt
    + CCD.
703 Catalina Sky Survey.  Observer A. R. Gibbs.  Measurers E. C. Beshore,
    E. J. Christensen, G. J. Garradd, A. R. Gibbs, A. D. Grauer, R. E. Hill,
    R. A. Kowalski, S. M. Larson, R. H. McNaught.  0.68-m Schmidt + CCD.
734 Farpoint Observatory.  Observer D. Tibbets.  Measurer G. Hug.  0.7-m
    reflector + CCD.
E12 Siding Spring Survey.  Observer R. H. McNaught.  Measurers E. C. Beshore,
    E. J. Christensen, G. J. Garradd, A. R. Gibbs, A. D. Grauer, R. E. Hill,
    R. A. Kowalski, S. M. Larson, R. H. McNaught.  0.5-m Uppsala Schmidt + CCD.
G96 Mt. Lemmon Survey.  Observer E. J. Christensen.  Measurers E. C. Beshore,
    E. J. Christensen, G. J. Garradd, A. R. Gibbs, A. D. Grauer, R. E. Hill,
    R. A. Kowalski, S. M. Larson, R. H. McNaught.  1.5-m reflector + CCD.

Orbital elements:
2006 KZ37                                                Earth MOID = 0.0962 AU
Epoch 2006 Mar. 6.0 TT = JDT 2453800.5                  MPC
M 229.37232              (2000.0)            P               Q
n   0.67674460     Peri.  243.14534     +0.87182050     +0.32933233
a   1.2848512      Node    95.73980     -0.20681890     +0.91851282
e   0.2086866      Incl.   21.37152     -0.44402134     +0.21880224
P   1.46           H   19.1           G   0.15           U   6
Residuals in seconds of arc
060323 691  0.3+  0.4+    060524 E12  0.5-  0.1+    060525 734  0.4-  0.2-
060323 691  0.1-  0.3+    060524 E12  0.6+  0.0     060525 734  0.1-  0.2-
060323 691  0.3-  0.7-    060524 143  0.2-  0.4-    060525 673  0.5+  0.3+
060524 703  0.1-  0.4+    060524 143  0.4+  0.2-    060525 734  0.3-  0.0
060524 703  0.5-  0.2-    060524 118  0.0   0.1-    060525 673  0.0   0.1+
060524 703  0.7+  0.2+    060524 118  0.2-  0.2-    060525 699  0.3-  0.0
060524 703  0.3-  0.0     060525 118  0.1+  0.0     060525 699  0.2+  0.2-
060524 703  0.4-  0.4-    060525 118  0.2+  0.0     060525 G96  0.1+  0.3-
060524 703  0.4-  0.1+    060525 699  0.2-  0.7+    060525 G96  0.0   0.1-
060524 E12  0.1+  0.3+    060525 673  0.4+  0.3+    060525 G96  0.1-  0.2-
060524 E12  0.1+  0.1+    060525 734  0.1-  0.2-    060525 G96  0.3-  0.2-
060524 E12  0.6+  0.0     060525 673  0.6+  0.4+    060525 699  0.1-  0.4+

Ephemeris:
2006 KZ37                a,e,i = 1.28, 0.21, 21                  q = 1.0167
Date    TT    R. A. (2000) Decl.     Delta      r     Elong.  Phase     V
2006 05 25    15 54.69   +30 38.0    0.372    1.278   128.4    38.4    19.0
2006 06 04    15 26.93   +26 35.9    0.334    1.245   127.3    40.4    18.8
2006 06 14    14 59.50   +19 30.8    0.306    1.213   123.9    44.0    18.6
2006 06 24    14 36.02   +09 39.0    0.290    1.181   118.1    49.4    18.6
2006 07 04    14 18.50   -02 01.0    0.286    1.150   110.8    55.8    18.7
2006 07 14    14 07.00   -14 10.3    0.294    1.120   103.1    62.1    18.9
2006 07 24    14 00.59   -25 47.1    0.310    1.093    96.0    67.6    19.1
2006 08 03    13 58.35   -36 21.8    0.332    1.068    90.2    71.8    19.4
2006 08 13    13 59.34   -45 49.3    0.355    1.048    85.7    74.6    19.6
2006 08 23    14 03.08   -54 16.1    0.379    1.032    82.4    76.2    19.7
2006 09 02    14 09.92   -61 54.8    0.399    1.022    80.5    76.9    19.8
2006 09 12    14 21.29   -68 57.1    0.415    1.017    79.6    76.8    19.9
2006 09 22    14 42.92   -75 32.9    0.425    1.018    79.8    76.0    19.9
2006 10 02    15 39.09   -81 44.4    0.428    1.025    81.0    74.6    19.9
2006 10 12    19 29.87   -85 41.0    0.426    1.038    83.2    72.7    19.9
2006 10 22    23 33.40   -81 19.4    0.419    1.056    86.4    70.2    19.8
2006 11 01    00 34.04   -73 20.8    0.410    1.078    90.6    67.1    19.7
2006 11 11    00 59.33   -63 42.9    0.401    1.103    95.5    63.3    19.6
2006 11 21    01 15.42   -52 35.0    0.398    1.132   100.7    59.1    19.5
2006 12 01    01 28.97   -40 19.4    0.407    1.162   105.4    54.9    19.5
2006 12 11    01 42.23   -27 46.5    0.431    1.194   108.5    51.5    19.6
2006 12 21    01 56.14   -15 54.7    0.472    1.226   109.6    49.1    19.7
2006 12 31    02 11.27   -05 26.2    0.531    1.258   108.7    47.8    20.0
2007 01 10    02 27.77   +03 23.6    0.605    1.290   106.2    47.1    20.3
2007 01 20    02 45.73   +10 40.4    0.690    1.321   102.8    46.6    20.7
2007 01 30    03 05.25   +16 37.9    0.784    1.351    98.9    46.1    21.0
2007 02 09    03 26.25   +21 29.8    0.884    1.380    94.9    45.4    21.3
2007 02 19    03 48.71   +25 28.1    0.988    1.406    90.7    44.7    21.5
2007 03 01    04 12.60   +28 41.8    1.094    1.431    86.6    43.7    21.8
2007 03 11    04 37.78   +31 16.9    1.200    1.454    82.5    42.6    22.0

Gareth V. Williams           (C) Copyright 2006 MPC           M.P.E.C. 2006-K43

Read MPEC 2006-K42 Read MPEC 2006-K44


Our Web policy. Index to the CBAT/MPC/ICQ pages.


Valid HTML 4.01!